Weather History for KRUT - March, 2013

Change the Weather History Date:

Saturday, March 30, 2013

  Actual Average Record
Temperature  
Mean Temperature 40 °F -  
Max Temperature 52 °F - 83 °F (1977)
Min Temperature 27 °F - 8 °F (2008)
Degree Days  
Heating Degree Days 25    
Month to date heating degree days 1023  
Since 1 July heating degree days 5899  
Cooling Degree Days 0    
Month to date cooling degree days 0  
Year to date cooling degree days 0  
Moisture  
Dew Point 23 °F    
Average Humidity 59    
Maximum Humidity 92    
Minimum Humidity 26    
Precipitation  
Precipitation 0.00 in - 0.84 in (1954)
Month to date precipitation 0.83  
Year to date precipitation 2.58  
Sea Level Pressure  
Sea Level Pressure 30.07 in    
Wind  
Wind Speed 5 mph (ESE)    
Max Wind Speed 12 mph    
Max Gust Speed 17 mph    
Visibility 10 miles    
Events      
T = Trace of Precipitation, MM = Missing Value Source: NWS Daily Summary

Daily Weather History Graph

Daily Weather History Graph

Search for Another Location

Airport or City:

Trip Planner

Search our weather history database for the weather conditions in past years. The results will help you decide how hot, cold, wet, or windy it might be!

Date:

Astronomy

Mar. 30, 2013 Rise Set
Actual Time 6:36 AM EDT 7:16 PM EDT
Civil Twilight 6:07 AM EDT 7:45 PM EDT
Nautical Twilight 5:33 AM EDT 8:19 PM EDT
Astronomical Twilight 4:58 AM EDT 8:55 PM EDT
Moon 11:27 PM EDT (3/30) 8:22 AM EDT (3/30)
Length of Visible Light 13h 37m
Length of Day
12h 39m
Waning Gibbous, 86% of the Moon is Illuminated
Mar 30
Waning Gibbous
Apr 3
Last Quarter
Apr 10
New
Apr 18
First Quarter
Apr 25
Full

Hourly Weather History & Observations

Time (EDT) Temp. Windchill Dew Point Humidity Pressure Visibility Wind Dir Wind Speed Gust Speed Precip Events Conditions
12:15 AM 33.8 °F 30.8 °F 32.0 °F 93% 30.07 in 10.0 mi SE 3.5 mph - N/A   Overcast
12:35 AM 33.8 °F - 30.2 °F 87% 30.07 in 5.0 mi Calm Calm - N/A   Mostly Cloudy
12:55 AM 32.0 °F 25.6 °F 30.2 °F 93% 30.07 in 9.0 mi SE 6.9 mph - N/A   Mostly Cloudy
1:15 AM 33.8 °F 30.8 °F 30.2 °F 87% 30.07 in 10.0 mi ESE 3.5 mph - N/A   Mostly Cloudy
1:35 AM 32.0 °F 26.4 °F 30.2 °F 93% 30.07 in 10.0 mi SE 5.8 mph - N/A   Partly Cloudy
1:55 AM 30.2 °F 23.4 °F 28.4 °F 93% 30.07 in 10.0 mi SE 6.9 mph - N/A   Clear
2:35 AM 30.2 °F 25.4 °F 30.2 °F 100% 30.07 in 10.0 mi SE 4.6 mph - N/A   Partly Cloudy
2:55 AM 30.2 °F - 28.4 °F 93% 30.07 in 10.0 mi Calm Calm - N/A   Clear
3:15 AM 30.2 °F 24.3 °F 28.4 °F 93% 30.07 in 10.0 mi SE 5.8 mph - N/A   Clear
3:55 AM 30.2 °F 25.4 °F 28.4 °F 93% 30.07 in 10.0 mi SSE 4.6 mph - N/A   Clear
4:15 AM 28.4 °F 23.3 °F 28.4 °F 100% 30.07 in 10.0 mi SE 4.6 mph - N/A   Clear
4:55 AM 28.4 °F 23.3 °F 26.6 °F 93% 30.07 in 10.0 mi SSE 4.6 mph - N/A   Clear
5:15 AM 28.4 °F 24.6 °F 26.6 °F 93% 30.07 in 10.0 mi SE 3.5 mph - N/A   Clear
5:35 AM 28.4 °F 23.3 °F 26.6 °F 93% 30.08 in 10.0 mi SSE 4.6 mph - N/A   Clear
5:55 AM 28.4 °F 22.2 °F 26.6 °F 93% 30.08 in 10.0 mi SE 5.8 mph - N/A   Clear
6:15 AM 28.4 °F 21.2 °F 26.6 °F 93% 30.08 in 10.0 mi SE 6.9 mph - N/A   Clear
6:35 AM 28.4 °F 22.2 °F 26.6 °F 93% 30.09 in 10.0 mi SE 5.8 mph - N/A   Clear
7:15 AM 26.6 °F 21.2 °F 24.8 °F 93% 30.10 in 10.0 mi SSE 4.6 mph - N/A   Clear
7:35 AM 28.4 °F 23.3 °F 26.6 °F 93% 30.10 in 10.0 mi SE 4.6 mph - N/A   Clear
7:55 AM 28.4 °F 24.6 °F 26.6 °F 93% 30.10 in 10.0 mi SE 3.5 mph - N/A   Clear
8:15 AM 30.2 °F 25.4 °F 28.4 °F 93% 30.10 in 10.0 mi SE 4.6 mph - N/A   Clear
8:35 AM 32.0 °F - 28.4 °F 87% 30.10 in 10.0 mi Calm Calm - N/A   Clear
8:55 AM 33.8 °F - 28.4 °F 81% 30.10 in 10.0 mi Calm Calm - N/A   Clear
9:15 AM 35.6 °F - 30.2 °F 81% 30.10 in 10.0 mi Calm Calm - N/A   Clear
9:55 AM 37.4 °F - 30.2 °F 75% 30.10 in 10.0 mi Calm Calm - N/A   Clear
10:15 AM 39.2 °F 37.0 °F 30.2 °F 70% 30.10 in 10.0 mi North 3.5 mph - N/A   Clear
10:35 AM 39.2 °F 35.0 °F 28.4 °F 65% 30.10 in 10.0 mi NNE 5.8 mph - N/A   Clear
10:55 AM 41.0 °F - 28.4 °F 61% 30.10 in 10.0 mi Calm Calm - N/A   Clear
11:15 AM 42.8 °F 39.3 °F 26.6 °F 53% 30.09 in 10.0 mi NW 5.8 mph - N/A   Clear
11:35 AM 44.6 °F 40.2 °F 21.2 °F 39% 30.09 in 10.0 mi NNW 8.1 mph - N/A   Partly Cloudy
11:55 AM 44.6 °F 38.8 °F 21.2 °F 39% 30.09 in 10.0 mi WNW 11.5 mph - N/A   Mostly Cloudy
12:35 PM 44.6 °F 39.7 °F 17.6 °F 34% 30.08 in 10.0 mi NNW 9.2 mph 16.1 mph N/A   Clear
12:55 PM 46.4 °F 42.4 °F 19.4 °F 34% 30.07 in 10.0 mi North 8.1 mph 17.3 mph N/A   Clear
1:15 PM 46.4 °F 41.5 °F 19.4 °F 34% 30.07 in 10.0 mi NNW 10.4 mph - N/A   Clear
1:35 PM 46.4 °F 42.4 °F 17.6 °F 32% 30.06 in 10.0 mi NNW 8.1 mph - N/A   Clear
1:55 PM 46.4 °F 42.9 °F 17.6 °F 32% 30.06 in 10.0 mi West 6.9 mph - N/A   Partly Cloudy
2:15 PM 46.4 °F 43.5 °F 19.4 °F 34% 30.05 in 10.0 mi NW 5.8 mph - N/A   Partly Cloudy
2:35 PM 46.4 °F 43.5 °F 19.4 °F 34% 30.05 in 10.0 mi North 5.8 mph - N/A   Partly Cloudy
2:55 PM 48.2 °F - 17.6 °F 30% 30.04 in 10.0 mi West 8.1 mph - N/A   Partly Cloudy
3:15 PM 48.2 °F - 19.4 °F 32% 30.04 in 10.0 mi NNW 4.6 mph - N/A   Mostly Cloudy
3:55 PM 50.0 °F - 17.6 °F 28% 30.03 in 10.0 mi NW 5.8 mph - N/A   Mostly Cloudy
4:15 PM 48.2 °F - 17.6 °F 30% 30.03 in 10.0 mi West 4.6 mph - N/A   Mostly Cloudy
4:35 PM 50.0 °F - 15.8 °F 26% 30.02 in 10.0 mi NNW 9.2 mph - N/A   Scattered Clouds
4:55 PM 48.2 °F - 17.6 °F 30% 30.03 in 10.0 mi North 10.4 mph - N/A   Scattered Clouds
5:15 PM 48.2 °F - 17.6 °F 30% 30.03 in 10.0 mi NNW 6.9 mph - N/A   Clear
5:36 PM 48.2 °F - 17.6 °F 30% 30.03 in 10.0 mi North 12.7 mph - N/A   Clear
5:55 PM 48.2 °F - 15.8 °F 27% 30.03 in 10.0 mi Calm Calm - N/A   Clear
6:15 PM 48.2 °F - 14.0 °F 25% 30.03 in 10.0 mi NW 6.9 mph - N/A   Clear
6:35 PM 48.2 °F - 15.8 °F 27% 30.03 in 10.0 mi Calm Calm - N/A   Clear
6:55 PM 46.4 °F 43.5 °F 15.8 °F 29% 30.04 in 10.0 mi North 5.8 mph - N/A   Clear
7:15 PM 46.4 °F 45.2 °F 15.8 °F 29% 30.04 in 10.0 mi NNW 3.5 mph - N/A   Clear
7:35 PM 44.6 °F 43.1 °F 15.8 °F 31% 30.05 in 10.0 mi NNW 3.5 mph - N/A   Clear
7:55 PM 44.6 °F - 15.8 °F 31% 30.05 in 10.0 mi Calm Calm - N/A   Clear
8:15 PM 39.2 °F 37.0 °F 19.4 °F 45% 30.06 in 10.0 mi SE 3.5 mph - N/A   Clear
8:35 PM 37.4 °F 32.8 °F 23.0 °F 56% 30.07 in 10.0 mi SE 5.8 mph - N/A   Clear
8:55 PM 35.6 °F 32.8 °F 21.2 °F 56% 30.07 in 10.0 mi SE 3.5 mph - N/A   Clear
9:15 PM 35.6 °F 29.9 °F 21.2 °F 56% 30.08 in 10.0 mi ESE 6.9 mph - N/A   Clear
9:35 PM 35.6 °F 29.2 °F 19.4 °F 52% 30.08 in 10.0 mi ESE 8.1 mph - N/A   Clear
9:55 PM 33.8 °F 28.6 °F 19.4 °F 56% 30.08 in 10.0 mi SSE 5.8 mph - N/A   Clear
10:15 PM 33.8 °F 26.4 °F 19.4 °F 56% 30.09 in 10.0 mi SE 9.2 mph - N/A   Clear
10:35 PM 33.8 °F 26.4 °F 19.4 °F 56% 30.09 in 10.0 mi ESE 9.2 mph - N/A   Clear
10:55 PM 32.0 °F 24.2 °F 19.4 °F 60% 30.09 in 10.0 mi SE 9.2 mph - N/A   Clear
11:15 PM 30.2 °F 23.4 °F 21.2 °F 69% 30.09 in 10.0 mi SE 6.9 mph - N/A   Clear
11:35 PM 30.2 °F 24.3 °F 19.4 °F 64% 30.09 in 10.0 mi SSE 5.8 mph - N/A   Clear
11:55 PM 30.2 °F 23.4 °F 19.4 °F 64% 30.10 in 10.0 mi ESE 6.9 mph - N/A   Clear